Pottstown, PA

7:33 PM EST on January 17, 2018 (GMT -0500)
Pottstown Limerick

Weather History for KPTW - March, 2013

Change the Weather History Date:

Wednesday, March 6, 2013

  Actual Average (KRDG) Record (KRDG)
Temperature  
Mean Temperature 38 °F -  
Max Temperature 41 °F 43 °F 67 °F (1976)
Min Temperature 34 °F 27 °F 2 °F (2015)
Degree Days  
Heating Degree Days 28    
Moisture  
Dew Point 31 °F    
Average Humidity 76    
Maximum Humidity 100    
Minimum Humidity 60    
Precipitation  
Precipitation 0.03 in - - ()
Sea Level Pressure  
Sea Level Pressure 29.85 in    
Wind  
Wind Speed 12 mph (NE)    
Max Wind Speed 25 mph    
Max Gust Speed 33 mph    
Visibility 10 miles    
Events Rain    
Averages and records for this station are not official NWS values.
T = Trace of Precipitation, MM = Missing Value Source: NWS Daily Summary

Daily Weather History Graph

Daily Weather History Graph

Search for Another Location

Airport or City:

Trip Planner

Search our weather history database for the weather conditions in past years. The results will help you decide how hot, cold, wet, or windy it might be!

Date:

Astronomy

Mar. 06, 2013 Rise Set
Actual Time 6:27 AM EST 5:59 PM EST
Civil Twilight 6:00 AM EST 6:26 PM EST
Nautical Twilight 5:29 AM EST 6:58 PM EST
Astronomical Twilight 4:57 AM EST 7:29 PM EST
Moon 2:35 AM EST (3/6) 12:38 PM EST (3/6)
Length of Visible Light 12h 26m
Length of Day
11h 31m
Waning Crescent, 30% of the Moon is Illuminated
Mar 6
Waning Crescent
Mar 11
New
Mar 19
First Quarter
Mar 27
Full
Apr 3
Last Quarter

Hourly Weather History & Observations

Time (EST) Temp. Windchill Dew Point Humidity Pressure Visibility Wind Dir Wind Speed Gust Speed Precip Events Conditions
12:54 AM 34.0 °F 28.8 °F 27.0 °F 75% 29.91 in 10.0 mi ENE 5.8 mph - N/A   Clear
1:54 AM 34.0 °F 26.6 °F 28.0 °F 79% 29.88 in 10.0 mi ENE 9.2 mph - N/A   Clear
2:54 AM 35.1 °F 28.6 °F 28.9 °F 78% 29.85 in 10.0 mi ENE 8.1 mph - N/A   Clear
3:54 AM 35.1 °F 28.6 °F 30.0 °F 82% 29.83 in 10.0 mi ENE 8.1 mph - N/A   Mostly Cloudy
4:54 AM 37.9 °F 31.5 °F 30.9 °F 76% 29.81 in 10.0 mi ENE 9.2 mph 20.7 mph N/A   Overcast
5:54 AM 39.0 °F 31.4 °F 30.0 °F 70% 29.80 in 10.0 mi ENE 12.7 mph 24.2 mph N/A   Overcast
6:54 AM 39.0 °F 31.8 °F 32.0 °F 76% 29.80 in 10.0 mi ENE 11.5 mph 31.1 mph N/A   Overcast
7:54 AM 37.9 °F 30.0 °F 33.1 °F 83% 29.81 in 10.0 mi ENE 12.7 mph 26.5 mph 0.00 in Rain Light Rain
8:54 AM 37.9 °F 30.0 °F 33.1 °F 83% 29.81 in 10.0 mi ENE 12.7 mph 33.4 mph 0.00 in Rain Light Rain
9:54 AM 39.9 °F 30.2 °F 32.0 °F 73% 29.81 in 10.0 mi ENE 20.7 mph 33.4 mph 0.00 in Rain Light Rain
10:54 AM 39.0 °F 30.3 °F 32.0 °F 76% 29.81 in 10.0 mi ENE 16.1 mph 25.3 mph 0.00 in Rain Light Rain
11:54 AM 39.9 °F 29.2 °F 32.0 °F 73% 29.80 in 10.0 mi NE 25.3 mph 31.1 mph 0.00 in   Overcast
12:54 PM 39.0 °F 29.3 °F 34.0 °F 82% 29.80 in 10.0 mi NE 19.6 mph 31.1 mph 0.00 in Rain Light Rain
1:22 PM 39.2 °F 29.6 °F 33.8 °F 81% 29.79 in 10.0 mi NE 19.6 mph 29.9 mph 0.01 in Rain Light Rain
1:33 PM 39.2 °F 29.6 °F 33.8 °F 81% 29.79 in 10.0 mi NE 19.6 mph 26.5 mph 0.01 in Rain Light Rain
1:54 PM 39.9 °F 31.1 °F 34.0 °F 79% 29.79 in 10.0 mi NE 17.3 mph 31.1 mph 0.01 in Rain Light Rain
2:13 PM 39.2 °F 29.8 °F 33.8 °F 81% 29.80 in 10.0 mi NE 18.4 mph 28.8 mph 0.00 in   Overcast
2:54 PM 41.0 °F 33.5 °F 32.0 °F 70% 29.81 in 10.0 mi NE 13.8 mph 23.0 mph 0.00 in   Overcast
3:41 PM 39.2 °F 31.2 °F 33.8 °F 81% 29.84 in 9.0 mi NE 13.8 mph 21.9 mph 0.00 in Rain Light Rain
3:54 PM 39.9 °F 32.1 °F 33.1 °F 77% 29.85 in 10.0 mi NE 13.8 mph 21.9 mph 0.00 in Rain Light Rain
4:43 PM 37.4 °F 29.8 °F 37.4 °F 100% 29.87 in 10.0 mi NNE 11.5 mph - 0.02 in Rain Light Rain
4:54 PM 39.0 °F 31.0 °F 37.0 °F 93% 29.87 in 10.0 mi NNE 13.8 mph 23.0 mph 0.02 in Rain Light Rain
5:54 PM 39.9 °F 31.1 °F 36.0 °F 86% 29.89 in 10.0 mi NNE 17.3 mph 29.9 mph 0.00 in   Overcast
6:54 PM 39.9 °F 31.8 °F 28.9 °F 65% 29.91 in 10.0 mi NNE 15.0 mph 33.4 mph N/A   Overcast
7:54 PM 39.9 °F 32.9 °F 28.0 °F 63% 29.94 in 10.0 mi NNE 11.5 mph 23.0 mph N/A   Overcast
8:54 PM 39.9 °F 32.5 °F 28.0 °F 63% 29.94 in 10.0 mi NNE 12.7 mph 24.2 mph N/A   Overcast
9:54 PM 39.0 °F 31.0 °F 27.0 °F 62% 29.96 in 10.0 mi NNE 13.8 mph 27.6 mph N/A   Overcast
10:54 PM 39.0 °F 31.8 °F 26.1 °F 60% 29.97 in 10.0 mi NNE 11.5 mph 20.7 mph N/A   Overcast
11:54 PM 39.0 °F 29.3 °F 26.1 °F 60% 29.97 in 10.0 mi North 19.6 mph 27.6 mph N/A   Overcast